星链-33816 (STARLINK-33816)

导读

STARLINK-33816是美国星链(Starlink)项目的卫星,于2025年4月28日发射升空,属于SpaceX公司打造的低轨卫星互联网星座一员,旨在为全球用户提供高速卫星互联网服务。星链项目持续批量发射卫星,不断拓展星座规模,完善覆盖范围,推动全球互联网接入尤其是偏远地区的网络普及。

基本信息
目录编号:
63677
目录名称:
STARLINK-33816
国际标识:
2025-085P
轨道中心:
EARTH
卫星名称:
星链-33816
卫星全名:
星链-33816 (STARLINK-33816)
卫星状态:
在轨 (已飞行412 天)
发射日期:
2025-04-28 UTC
国别 :
美国 (US)
星等 :
--
轨道信息
数据来源 国际轨道数据
星历时间: 2026-06-13T04:41:45+0800
1天前
查看轨道信息
半长轴: 6861.087km
偏心率: 0.0002237
轨道倾角: 43.000°
近地点辐角 268.812°
升交点赤经 213.580°
平近点角 91.247°
近地点: 481.415km
远地点: 484.485km
周期: 94.265分钟
每日圈数: 15.276134
详细信息
固有亮度:
5
最大亮度:
2.5
卫星平台:
Starlink V1.0
覆盖范围:
全球
运营商:
太空探索技术公司
运营商所在国:
美国
制造商(研发单位):
太空探索技术公司
制造商所在国:
美国
使用方式:
暂无
卫星简介
Starlink 计划是 SpaceX 推出的全球卫星互联网项目,通过发射低轨道卫星,为全球尤其是偏远地区提供高速、低延迟的互联网服务。自 2019 年起,Starlink 已部署数千颗卫星,旨在缩小全球数字鸿沟,推动互联网普及。该项目还为军事、航空等行业提供通信支持,带来广泛经济效益。
2D轨道图
3D轨道图
轨道高度分析图
轨道倾角分析图
轨道综合分析图
查看轨道综合分析图